Location: Austin
(30.3000°N, 97.7500°W)
Time: 12:34:16
(UTC-05:00)

Terra - Pass Details

Date: 08 April 2026
Orbit: 687 x 692 km, 98.0° (Epoch: 11 April)

Event Time Altitude Azimuth Distance (km) Brightness Sun altitude
Exits shadow 21:49:48 45° 36° (NE) 935 2.3 -24.6°
Drops below altitude 10° 21:53:26 10° 359° (N) 2,139 4.6 -25.3°
Sets 21:55:43 0° 355° (N) 3,058 5.5 -25.7°
